#timestamp,LO_Frequency,Hit,StdDev 
1595851215.3,286047002.3,N
1595851235.2,286047000.3,N
1595851255.0,286046999.9,N
1595851255.9,286046999.9,N
1595851275.7,286047002.2,N
1595851295.6,286047001.7,N
1595851315.4,286047006.0,Y
1595851335.3,286047004.0,P
1595851355.1,286047001.9,N
1595851375.8,286047004.4,N
1595851395.7,286047003.6,N
1595851415.5,286047002.5,N
1595851435.4,286047002.8,N
1595851455.2,286047002.8,N
1595851475.0,286047000.4,N
1595851475.9,286047000.4,N
1595851495.8,286047000.9,N
1595851515.6,286047000.5,N
1595851535.4,286047000.7,N
1595851555.3,286047000.2,N
1595851575.1,286047001.9,N
1595851595.9,286047003.6,N
1595851615.7,286047005.5,Y
1595851635.5,286047001.4,P
1595851655.4,286047002.7,P
1595851675.2,286047000.5,N
1595851695.1,286046998.1,N
1595851696.0,286046998.1,N
1595851715.8,286047001.2,N
1595851735.6,286046998.6,N
1595851755.5,286047000.6,N
1595851775.3,286046998.6,N
1595851795.1,286046999.4,N
1595851815.9,286046998.9,N
1595851835.7,286046999.4,N
1595851855.6,286046996.5,N
1595851875.4,286046996.9,N
1595851895.2,286046996.7,N
1595851915.1,286046997.8,N
1595851916.0,286046997.8,N
1595851935.8,286046997.4,N
1595851955.7,286046997.2,N
1595851975.5,286046995.4,N
1595851995.3,286046997.6,N
1595852015.2,286046995.2,N
1595852035.0,286046993.4,Y
1595852035.9,286046993.4,P
1595852055.8,286046997.4,N
1595852075.6,286046997.2,N
1595852095.4,286046997.5,N
1595852115.3,286046997.3,N
1595852135.1,286046996.9,N
1595852136.0,286046996.9,N
1595852155.8,286046997.1,N
1595852175.7,286046997.3,N
1595852195.5,286046999.0,N
1595852215.3,286046999.5,N
1595852235.2,286046996.5,N
1595852255.0,286046997.3,N
1595852255.9,286046997.3,N
1595852275.8,286046999.6,N
1595852295.6,286046999.4,N
1595852315.4,286046999.5,N
1595852335.3,286046999.1,N
1595852355.1,286046998.5,N
1595852375.8,286047000.9,N
1595852395.7,286047000.8,N
1595852415.5,286047000.7,N
1595852435.4,286046998.1,N
1595852455.2,286046998.5,N
1595852475.0,286047001.2,N
1595852475.9,286047001.2,N
1595852495.8,286047001.1,N
1595852515.6,286046998.4,N
1595852535.5,286046998.4,N
1595852555.3,286046998.2,N
1595852575.1,286046998.5,N
1595852595.9,286047000.5,N
1595852615.7,286047001.0,N
1595852635.5,286046998.1,N
1595852655.4,286047001.2,N
1595852675.2,286047000.9,N
1595852695.0,286047000.8,N
1595852696.0,286047000.8,N
1595852715.8,286046999.3,N
1595852735.6,286047001.2,N
1595852755.5,286047000.9,N
1595852775.3,286047000.4,N
1595852795.1,286047000.5,N
1595852815.9,286047000.6,N
1595852835.7,286047000.0,N
1595852855.6,286046999.8,N
1595852875.4,286047000.3,N
1595852895.2,286047000.4,N
1595852915.1,286047001.0,N
1595852916.0,286047001.0,N
1595852935.8,286047001.0,N
1595852955.6,286047000.4,N
1595852975.5,286047000.6,N
1595852995.3,286047000.7,N
1595853015.2,286047001.0,N
1595853035.9,286047001.2,N
1595853055.7,286047001.1,N
1595853075.6,286046998.1,N
1595853095.4,286046998.2,N
1595853115.2,286047001.2,N
1595853135.1,286047000.6,N
1595853136.0,286047000.6,N
1595853155.8,286046998.6,N
1595853175.7,286046999.6,N
1595853195.5,286046998.9,N
1595853215.3,286046996.5,Y
1595853235.2,286046996.9,P
1595853255.0,286046997.0,N
1595853255.9,286046997.0,N
1595853275.7,286046997.0,N
1595853295.6,286046996.7,N
1595853315.4,286046997.1,N
1595853335.3,286046997.7,N
1595853355.1,286046996.1,Y
1595853375.8,286046997.7,P
1595853395.7,286046998.8,P
1595853415.5,286046996.5,P
1595853435.4,286046996.9,Y
1595853455.2,286047002.8,P
1595853475.0,286046999.7,N
1595853475.9,286046999.7,N
1595853495.8,286047002.3,N
1595853515.6,286047002.5,N
1595853535.4,286047002.7,N
1595853555.3,286047000.2,N
1595853575.1,286047000.5,N
1595853595.9,286047001.1,N
1595853615.7,286046998.4,N
1595853635.5,286046998.2,N
1595853655.4,286047001.2,N
1595853675.2,286047001.1,N
1595853695.0,286046998.2,N
1595853695.9,286046998.2,N
1595853715.8,286046998.3,N
1595853735.6,286046999.0,N
1595853755.4,286046998.9,N
1595853775.3,286046998.4,N
1595853795.1,286046999.4,N
1595853815.9,286046999.3,N
1595853835.7,286046998.9,N
1595853855.5,286046999.4,N
1595853875.4,286046996.5,N
1595853895.2,286046997.2,N
1595853915.0,286046996.7,N
1595853915.9,286046996.7,N
1595853935.8,286046999.1,N
1595853955.6,286046997.1,N
1595853975.5,286046996.5,N
1595853995.3,286046997.2,N
1595854015.1,286046997.3,N
1595854035.9,286046997.3,N
1595854055.7,286046996.9,N
1595854075.5,286046997.1,N
1595854095.4,286046997.4,N
1595854115.2,286046999.6,N
1595854135.1,286046997.4,N
1595854136.0,286046997.4,N
1595854155.8,286046997.3,N
1595854175.6,286046997.1,N
1595854195.5,286046997.9,N
1595854215.3,286046997.8,N
1595854235.2,286046997.6,N
1595854255.9,286046994.9,Y
1595854275.7,286046999.2,P
1595854295.6,286046996.6,P
1595854315.4,286046996.5,P
1595854335.2,286046999.4,N
1595854355.1,286046996.5,N
1595854356.0,286046996.5,N
1595854375.8,286046996.6,N
1595854395.7,286046996.9,N
1595854415.5,286046999.6,N
1595854435.3,286046999.2,N
1595854455.2,286046999.5,N
1595854475.0,286046999.5,N
1595854475.9,286046999.5,N
1595854495.7,286046999.0,N
1595854515.6,286046999.1,N
1595854535.4,286046996.6,N
1595854555.3,286046997.2,N
1595854575.1,286046996.5,N
1595854576.0,286046996.5,N
1595854595.8,286046996.9,N
1595854615.7,286046996.9,N
1595854635.5,286046996.9,N
1595854655.3,286046997.1,N
1595854675.2,286046997.1,N
1595854695.0,286046997.9,N
1595854695.9,286046997.9,N
1595854715.8,286046997.4,N
1595854735.6,286046997.6,N
1595854755.4,286046997.3,N
1595854775.3,286046997.4,N
1595854795.1,286046997.5,N
